Weather History for Wahoo, NE

Change the Weather History Date:

Wednesday, February 6, 2013

  Actual Average Record
Temperature  
Mean Temperature 42 °F -  
Max Temperature 55 °F 32 °F 59 °F (1966)
Min Temperature 30 °F 10 °F -12 °F (1982)
Degree Days  
Heating Degree Days 22    
Moisture  
Dew Point 33 °F    
Average Humidity 76    
Maximum Humidity 89    
Minimum Humidity 56    
Precipitation  
Precipitation 0.00 in - - ()
Sea Level Pressure  
Sea Level Pressure 29.92 in    
Wind  
Wind Speed 7 mph (SSE)    
Max Wind Speed 17 mph    
Max Gust Speed 22 mph    
Visibility 10 miles    
Events      
Averages and records for this station are not official NWS values.
T = Trace of Precipitation, MM = Missing Value Source: NWS Daily Summary

Daily Weather History Graph

Daily Weather History Graph

Search for Another Location

Airport:

Trip Planner

Search our weather history database for the weather conditions in past years. The results will help you decide how hot, cold, wet, or windy it might be!

Date:

Astronomy

Feb. 06, 2013 Rise Set
Actual Time 7:31 AM CST 5:49 PM CST
Civil Twilight 7:03 AM CST 6:18 PM CST
Nautical Twilight 6:30 AM CST 6:51 PM CST
Astronomical Twilight 5:58 AM CST 7:23 PM CST
Moon 4:17 AM CST (2/6) 2:08 PM CST (2/6)
Length of Visible Light 11h 15m
Length of Day
10h 17m
Waning Crescent, 17% of the Moon is Illuminated
Feb 6
Waning Crescent
Feb 10
New
Feb 17
First Quarter
Feb 25
Full
Mar 4
Last Quarter

Hourly Weather History & Observations

Time (CST) Temp. Windchill Dew Point Humidity Pressure Visibility Wind Dir Wind Speed Gust Speed Precip Events Conditions
12:15 AM 31.3 °F 27.9 °F 27.3 °F 85% 30.06 in 10.0 mi SSW 3.5 mph - N/A   Clear
12:35 AM 31.8 °F 28.5 °F 27.0 °F 82% 30.06 in 10.0 mi SSE 3.5 mph - N/A   Clear
12:55 AM 30.9 °F 25.2 °F 27.5 °F 87% 30.05 in 10.0 mi ESE 5.8 mph - N/A   Mostly Cloudy
1:15 AM 31.1 °F - 28.2 °F 89% 30.06 in 10.0 mi Calm Calm - N/A   Overcast
1:35 AM 31.8 °F 27.3 °F 28.4 °F 87% 30.04 in 10.0 mi SE 4.6 mph - N/A   Scattered Clouds
1:55 AM 32.0 °F 26.4 °F 29.1 °F 89% 30.03 in 10.0 mi ESE 5.8 mph - N/A   Scattered Clouds
2:35 AM 32.5 °F 25.5 °F 29.3 °F 88% 30.03 in 10.0 mi SE 8.1 mph - N/A   Clear
2:55 AM 32.4 °F 26.0 °F 29.1 °F 88% 30.02 in 10.0 mi SE 6.9 mph - N/A   Clear
3:15 AM 32.4 °F 26.9 °F 29.3 °F 88% 30.02 in 10.0 mi SE 5.8 mph - N/A   Clear
3:35 AM 32.5 °F 27.1 °F 29.3 °F 88% 30.00 in 10.0 mi SSE 5.8 mph - N/A   Mostly Cloudy
3:55 AM 32.9 °F 26.7 °F 29.1 °F 86% 30.00 in 10.0 mi SSE 6.9 mph - N/A   Scattered Clouds
4:15 AM 32.4 °F 24.6 °F 28.8 °F 87% 30.00 in 10.0 mi SSE 9.2 mph - N/A   Clear
4:35 AM 32.7 °F 26.4 °F 28.4 °F 84% 30.00 in 10.0 mi SSE 6.9 mph - N/A   Clear
4:55 AM 31.6 °F 23.7 °F 27.9 °F 86% 29.98 in 10.0 mi SSE 9.2 mph - N/A   Scattered Clouds
5:15 AM 32.0 °F 24.2 °F 27.9 °F 85% 29.99 in 10.0 mi SSE 9.2 mph - N/A   Overcast
5:35 AM 32.0 °F 24.8 °F 28.0 °F 85% 29.99 in 10.0 mi SSE 8.1 mph - N/A   Mostly Cloudy
6:15 AM 32.2 °F 24.4 °F 28.4 °F 86% 29.98 in 10.0 mi SSE 9.2 mph - N/A   Clear
6:35 AM 32.0 °F 24.2 °F 28.4 °F 87% 29.96 in 10.0 mi SE 9.2 mph - N/A   Clear
6:55 AM 32.4 °F 24.0 °F 28.9 °F 87% 29.97 in 10.0 mi SSE 10.4 mph - N/A   Clear
7:15 AM 32.9 °F 24.7 °F 28.9 °F 85% 29.96 in 10.0 mi SSE 10.4 mph - N/A   Clear
7:35 AM 33.1 °F 25.5 °F 28.9 °F 85% 29.96 in 10.0 mi SSE 9.2 mph - N/A   Clear
7:55 AM 32.9 °F 25.9 °F 29.1 °F 86% 29.96 in 10.0 mi SE 8.1 mph - N/A   Clear
8:15 AM 33.4 °F 27.3 °F 29.8 °F 87% 29.97 in 10.0 mi SE 6.9 mph - N/A   Clear
8:35 AM 34.7 °F 27.5 °F 30.2 °F 84% 29.97 in 10.0 mi SE 9.2 mph - N/A   Clear
8:55 AM 35.6 °F 29.2 °F 31.1 °F 84% 29.96 in 10.0 mi SSE 8.1 mph - N/A   Clear
9:15 AM 38.1 °F 31.2 °F 31.8 °F 78% 29.96 in 10.0 mi SSE 10.4 mph - N/A   Clear
9:35 AM 40.3 °F 33.4 °F 32.2 °F 73% 29.96 in 10.0 mi South 11.5 mph - N/A   Clear
9:55 AM 41.9 °F 34.6 °F 32.0 °F 68% 29.96 in 10.0 mi South 13.8 mph 18.4 mph N/A   Scattered Clouds
10:35 AM 43.2 °F 35.9 °F 32.0 °F 65% 29.94 in 10.0 mi South 15.0 mph - N/A   Clear
10:55 AM 44.1 °F 37.7 °F 32.7 °F 64% 29.95 in 10.0 mi South 12.7 mph - N/A   Clear
11:15 AM 44.8 °F 38.3 °F 32.7 °F 63% 29.95 in 10.0 mi South 13.8 mph - N/A   Clear
11:35 AM 46.8 °F - 33.8 °F 61% 29.94 in 10.0 mi South 12.7 mph - N/A   Scattered Clouds
11:55 AM 48.2 °F - 33.4 °F 57% 29.93 in 10.0 mi South 17.3 mph - N/A   Scattered Clouds
12:15 PM 48.0 °F - 34.5 °F 60% 29.92 in 10.0 mi SSE 13.8 mph - N/A   Clear
12:35 PM 49.1 °F - 34.9 °F 58% 29.91 in 10.0 mi South 13.8 mph - N/A   Mostly Cloudy
12:55 PM 48.9 °F - 35.2 °F 59% 29.90 in 10.0 mi South 13.8 mph 21.9 mph N/A   Overcast
1:15 PM 49.1 °F - 36.3 °F 61% 29.89 in 10.0 mi South 10.4 mph - N/A   Overcast
1:35 PM 50.9 °F - 37.6 °F 60% 29.88 in 10.0 mi South 11.5 mph - N/A   Overcast
1:55 PM 51.3 °F - 39.6 °F 64% 29.86 in 10.0 mi South 11.5 mph - N/A   Scattered Clouds
2:15 PM 51.6 °F - 38.5 °F 61% 29.85 in 10.0 mi South 12.7 mph - N/A   Clear
2:35 PM 53.2 °F - 38.7 °F 58% 29.84 in 10.0 mi SSE 13.8 mph - N/A   Clear
2:55 PM 54.5 °F - 39.4 °F 57% 29.83 in 10.0 mi SSE 10.4 mph - N/A   Clear
3:15 PM 54.9 °F - 39.9 °F 57% 29.83 in 10.0 mi South 13.8 mph - N/A   Mostly Cloudy
3:35 PM 54.7 °F - 39.7 °F 57% 29.84 in 10.0 mi South 8.1 mph - N/A   Overcast
3:55 PM 55.2 °F - 39.9 °F 56% 29.83 in 10.0 mi South 9.2 mph - N/A   Mostly Cloudy
4:15 PM 55.8 °F - 40.3 °F 56% 29.83 in 10.0 mi South 5.8 mph - N/A   Scattered Clouds
4:55 PM 52.9 °F - 39.7 °F 61% 29.82 in 10.0 mi SSE 4.6 mph - N/A   Clear
5:15 PM 50.5 °F - 40.1 °F 67% 29.82 in 10.0 mi SSE 5.8 mph - N/A   Clear
5:35 PM 49.3 °F - 38.8 °F 67% 29.82 in 10.0 mi SE 5.8 mph - N/A   Clear
5:55 PM 46.6 °F - 37.9 °F 72% 29.83 in 10.0 mi Calm Calm - N/A   Clear
6:15 PM 47.5 °F - 38.1 °F 70% 29.83 in 10.0 mi Calm Calm - N/A   Clear
6:35 PM 46.6 °F - 37.0 °F 69% 29.84 in 10.0 mi Calm Calm - N/A   Clear
6:55 PM 40.8 °F 37.8 °F 35.6 °F 82% 29.85 in 10.0 mi NW 4.6 mph - N/A   Scattered Clouds
7:15 PM 41.2 °F - 35.8 °F 81% 29.86 in 10.0 mi Calm Calm - N/A   Mostly Cloudy
7:35 PM 43.0 °F - 36.0 °F 76% 29.86 in 10.0 mi Calm Calm - N/A   Mostly Cloudy
7:55 PM 43.3 °F 39.9 °F 36.0 °F 75% 29.86 in 10.0 mi NNE 5.8 mph - N/A   Mostly Cloudy
8:15 PM 38.5 °F 32.1 °F 34.5 °F 86% 29.86 in 10.0 mi NNE 9.2 mph - N/A   Mostly Cloudy
8:35 PM 38.1 °F 34.6 °F 33.6 °F 84% 29.86 in 10.0 mi NNE 4.6 mph - N/A   Overcast
8:55 PM 38.5 °F 36.1 °F 34.0 °F 84% 29.86 in 10.0 mi NNE 3.5 mph - N/A   Mostly Cloudy
9:15 PM 37.9 °F 32.7 °F 34.0 °F 86% 29.86 in 10.0 mi North 6.9 mph - N/A   Mostly Cloudy
9:35 PM 38.7 °F 34.3 °F 34.7 °F 86% 29.87 in 10.0 mi North 5.8 mph - N/A   Overcast
9:55 PM 39.2 °F 37.0 °F 34.5 °F 83% 29.87 in 10.0 mi North 3.5 mph - N/A   Mostly Cloudy
10:15 PM 39.2 °F 35.9 °F 34.7 °F 84% 29.87 in 10.0 mi North 4.6 mph - N/A   Overcast
10:35 PM 38.1 °F 32.9 °F 33.8 °F 84% 29.87 in 10.0 mi NNW 6.9 mph - N/A   Scattered Clouds
10:55 PM 38.8 °F 33.8 °F 34.7 °F 85% 29.87 in 10.0 mi NNW 6.9 mph - N/A   Mostly Cloudy
11:15 PM 40.5 °F 36.5 °F 35.2 °F 82% 29.87 in 10.0 mi North 5.8 mph - N/A   Overcast
11:35 PM 39.6 °F 34.7 °F 34.7 °F 83% 29.87 in 10.0 mi NNW 6.9 mph - N/A   Mostly Cloudy
11:55 PM 38.5 °F 35.0 °F 33.6 °F 83% 29.88 in 10.0 mi NNW 4.6 mph - N/A   Scattered Clouds